YAOGAN-27

Last updated on Mon Jun 22 2026 00:02:51 GMT+0000 (Coordinated Universal Time)

1 40878U 15040A 26172.51378911 -.00000410 00000+0 -96877-3 0 9996 2 40878 100.1159 158.7092 0007793 199.9680 160.1130 13.16069011518235
UTC large
Height (km)
Speed (km/s)
/
Latitude / Longitude
Inclination (degrees)
Orbital Period (minutes)
Azimuth
Elevation
Range (km)
Doppler Factor

Next 0 passes for location: London (51.5072 / 0.1276)

No passes found over London.
YAOGAN-27